ATLAS 5 CENTAUR DEB, 44677

Orbit data source: Space-Track

ATLAS 5 CENTAUR DEB, 44677 is space debris in HEO originally from a launch on Wed, 17 Oct 2018 UTC launched from the Air Force Eastern Test Range (AFETR). Debris objects in space refer to the collection of defunct objects orbiting the Earth. Examples of debris include non-operational satellites, rocket bodies, and fragments generated from explosions, collisions, or faulty payload assembly.

Loading next visibility...
Identifier
44677, 2018-079AP
Orbit
HEO
Last TLE update
3 days ago
Origin
Flag of USUnited Launch Alliance/Lockheed Martin (US)
Manufacturer
ULA Decatur
Mission
Spacecraft
Bus & Motor
Unknown
Mass
Unknown
Launch date (UTC)
2018-10-17 (7 years ago)
Launch vehicle
Unknown
Launch site
Air Force Eastern Test Range (AFETR)
Object type
Payload
Rocket body
Debris
Shape & HBR
Unknown
Radar Cross Section
RCS unknown

Expand to show TLE details & history

TLE from 3 days ago
0 ATLAS 5 CENTAUR DEB
1 44677U 18079AP  25181.13180867 -.00000125  00000-0  00000-0 0  9993
2 44677  12.5144  83.4911 4439845 217.2732 101.5285  1.78533462 39490
Epoch: 2025-06-30T03:09Z
TLE epoch observation values (Epoch: 2025-06-30T03:09:48.269Z)
Latitude
0.00003°
Longitude
117.58668°
Altitude
29,279.883 km
Speed
2.91 km/s
True Right ascension
05h 33m 56s
True Declination
0° 00' 00"
Sunlit
Object was in daylight at epoch
Visualization orbit readout
Latitude
7.11673°
Longitude
-96.7616°
Altitude
13,924.983 km
Speed
5.038 km/s
Apparent Right ascension
14h 26m 11s
Apparent Declination
-5° 05' 58"
Sunlit
Object is in daylight
Visualization observer readout
Local Sidereal Time
18:40:50
Azimuth
248.492° W
Elevation
16.376°
Doppler factor
1
Orbital elements
Apogee altitude
35,070.942 km
Perigee altitude
9,582.097 km
Semi-major axis
28,704.657 km
Eccentricity
0.44398
Inclination
12.5144°
RAAN
83.4911°
Arg. of periapsis
217.2732°
True anomaly
Unknown
Mean anomaly
101.5285°
Eccentric anomaly
Unknown
Mean motion
0.44629 °/min
Orbital period
806.66 mins
BSTAR
0
Loading maneuver chart data...
Loading SW <> Apogee altitude chart data...

ATLAS 5 CENTAUR DEB Visibility forecast

Observer location: undefined°, undefined°

Span
Click to sort rows by Start time (UTC) header in descending order
Start Az.
Max El. time (UTC)
Max El. Az.
Max El.
End time (UTC)
End Az.
90 mins2025-07-03 06:55:04.793Z248.459° W2025-07-03 07:40:04.793Z205.748° SW22.192°2025-07-03 08:25:04.793Z147.694° SSE
|